Weather Roundup
Issued by NWS Chicago, IL

Home | Current Version | Previous Version | Text Only | Print | Product List | Glossary On
Versions: 1 2 3 4 5 6 7 8 9 10 11 12 13 14 15 16 17 18 19 20 21 22 23 24 25 26 27 28 29 30 31 32 33 34 35 36 37 38 39 40 41 42 43 44 45 46 47 48 49 50
000
NZUS59 KLOT 251121
HRRLOT

CHICAGO AREA WEATHER ROUNDUP
NATIONAL WEATHER SERVICE CHICAGO/ROMEOVILLE IL
600 AM CDT SAT APR 25 2015

NOTE: "FAIR" INDICATES FEW OR NO CLOUDS BELOW 12,000 FEET WITH NO
SIGNIFICANT WEATHER AND/OR OBSTRUCTIONS TO VISIBILITY.

* THESE STATIONS ARE NOT UNDER NWS QUALITY CONTROL. THEY ALSO MAY NOT
  REPORT WEATHER SUCH AS PRECIPITATION OR FOG.

ILZ005-006-012>014-019>023-251200-
NORTHEAST ILLINOIS

CITY           SKY/WX    TMP DP  RH WIND       PRES   REMARKS
OHARE          CLOUDY    43  37  79 E12       29.80R
MIDWAY         CLOUDY    46  40  79 E15       29.80R
AURORA         CLOUDY    45  38  76 E15       29.77S
LANSING*       LGT RAIN  45  37  73 E13       29.79R
JOLIET*        LGT RAIN  45  42  89 E10       29.77R
WAUKEGAN       CLOUDY    40  37  89 E9        29.84R
DUPAGE AIRPORT CLOUDY    44  38  79 E16       29.77S
WHEELING       CLOUDY    43  37  79 E8        29.83R
KANKAKEE*      HVY RAIN  43  42  95 E13       29.76R
MORRIS*        DRIZZLE   44  41  89 E9        29.74R
LEWIS AIRPORT* LGT RAIN  44  39  84 E15       29.77S
NORTHERLY IS     N/A     43  39  86 NE10        N/A
$$

WIZ051-052-058>065-066-070>072-251200-
SOUTHEAST WISCONSIN

CITY           SKY/WX    TMP DP  RH WIND       PRES   REMARKS
MILWAUKEE      CLOUDY    40  35  83 E12       29.86F
KENOSHA*       CLOUDY    41  37  86 E14       29.84S
RACINE*        CLOUDY    41  36  82 E12       29.86F
BURLINGTON     MOCLDY    40  35  83 E6        29.84R
WAUKESHA       CLOUDY    37  34  87 NE12      29.86F
WEST BEND      CLOUDY    37  32  81 E9        29.87S
$$

INZ001>003-010>013-019-020-251200-
NORTHWEST INDIANA

CITY           SKY/WX    TMP DP  RH WIND       PRES   REMARKS
GARY*          CLOUDY    46  36  66 E14G28    29.80S
MICHIGAN CITY* NOT AVBL
RENSSELAER*    NOT AVBL
VALPARAISO     MOCLDY    43  38  82 E15G23    29.80S
$$

LMZ740>746-251200-
SOUTHERN LAKE MICHIGAN

STATION/POSITION TIME  SKY/WX   TEMP WIND        PRES    VSBY
                                AIR  DIR/SP/G
                 (UTC)          (F)  (DEG/KT/KT) (MB)    (MI)
HARRISON CRIB    1100            41   80/ 17/ 20   N/A
BURNHAM HARBOR   1100            43   60/  8/ 13   N/A
CALUMET HARBOR   1000            44   70/ 14/ 17   N/A
BURNS HARBOR     1100            46  100/ 13/ 24 1009.5F
MICHIGAN CITY    1100            44   70/ 13/ 18   N/A
$$

ABBREVIATIONS USED IN REMARKS
   TC - TEMPERATURE IN CELSIUS
  WCI - WIND CHILL INDEX
   HX - HEAT INDEX
  VSB - VISIBILITY
$$


USA.gov is the U.S. government's official web portal to all federal, state and local government web resources and services.